#timestamp,LO_Frequency,Hit,StdDev 
1510102815.6,286046997.2,N
1510102835.4,286046996.7,N
1510102855.3,286047001.2,N
1510102875.1,286046999.6,N
1510102895.9,286046993.4,N
1510102915.7,286046992.6,N
1510102935.5,286046997.3,N
1510102955.4,286046997.2,N
1510102975.2,286046999.1,N
1510102995.0,286046997.8,N
1510102995.9,286046997.8,N
1510103015.8,286046997.3,N
1510103035.6,286047001.6,N
1510103055.4,286046998.6,N
1510103075.3,286046997.8,N
1510103095.1,286046997.3,N
1510103115.8,286046994.1,N
1510103135.7,286046994.3,N
1510103155.5,286046993.0,N
1510103175.4,286046990.9,Y
1510103195.2,286046992.1,P
1510103215.0,286046984.6,P
1510103215.9,286046984.6,P
1510103235.8,286046980.4,Y
1510103255.6,286046984.2,P
1510103275.5,286046985.0,P
1510103295.3,286046981.9,P
1510103315.1,286046980.1,Y
1510103335.9,286046989.0,P
1510103355.7,286046991.1,P
1510103375.5,286046986.6,P
1510103395.4,286046983.5,Y
1510103415.2,286046990.7,P
1510103435.1,286046991.0,P
1510103436.0,286046991.0,P
1510103455.8,286046989.2,Y
1510103475.6,286047002.7,P
1510103495.5,286047000.1,N
1510103515.3,286047001.5,N
1510103535.2,286047007.9,N
1510103555.9,286047012.3,N
1510103575.7,286047013.5,N
1510103595.6,286047018.2,N
1510103615.4,286047022.9,N
1510103635.2,286047028.5,N
1510103655.1,286047032.9,N
1510103656.0,286047032.9,N
1510103675.8,286047031.4,N
1510103695.6,286047030.4,N
1510103715.5,286047036.0,N
1510103735.3,286047042.1,N
1510103755.1,286047043.0,N
1510103775.9,286047052.3,Y
1510103795.7,286047032.1,P
1510103815.6,286047033.8,P
1510103835.4,286047036.5,P
1510103855.2,286047039.7,Y
1510103875.1,286047009.9,P
1510103876.0,286047009.9,N
1510103895.8,286047010.7,N
1510103915.7,286047011.3,N
1510103935.5,286047015.5,N
1510103955.3,286047017.2,N
1510103975.2,286047015.1,N
1510103995.9,286047015.5,N
1510104015.7,286047012.6,N
1510104035.6,286047016.4,N
1510104055.4,286047021.3,Y
1510104075.3,286047008.7,P
1510104095.1,286047007.6,N
1510104115.8,286047006.3,N
1510104135.7,286047009.0,N
1510104155.5,286047009.4,Y
1510104175.4,286047000.9,P
1510104195.2,286046999.9,N
1510104215.0,286047000.9,N
1510104215.9,286047000.9,N
1510104235.8,286047002.8,N
1510104255.6,286047002.0,N
1510104275.4,286047003.3,N
1510104295.3,286047003.8,N
1510104315.1,286046997.4,N
1510104335.9,286046998.0,N
1510104355.7,286046991.3,N
1510104375.5,286046989.6,N
1510104395.4,286046987.3,N
1510104415.2,286046990.8,N
1510104435.0,286046990.7,N
1510104435.9,286046990.7,N
1510104455.8,286046991.4,N
1510104475.6,286046989.7,N
1510104495.4,286046982.3,N
1510104515.3,286046977.4,Y
1510104535.1,286046980.4,P
1510104555.9,286046978.4,N
1510104575.7,286046974.3,P
1510104595.5,286046971.0,Y
1510104615.4,286046987.7,P
1510104635.2,286046991.4,P
1510104655.0,286046991.0,N
1510104655.9,286046991.0,N
1510104675.8,286046987.8,Y
1510104695.6,286046995.4,P
1510104715.5,286046996.9,N
1510104735.3,286046998.7,N
1510104755.1,286047000.2,N
1510104775.9,286047001.2,N
1510104795.7,286046995.3,N
1510104815.5,286046994.3,N
1510104835.4,286046995.3,N
1510104855.2,286046996.9,N
1510104875.0,286046999.4,N
1510104875.9,286046999.4,N
1510104895.8,286046996.5,N
1510104915.6,286047000.1,N
1510104935.5,286047001.7,N
1510104955.3,286046994.9,N
1510104975.1,286047001.6,N
1510104995.9,286047000.1,N
1510105015.7,286046996.9,N
1510105035.5,286046991.8,N
1510105055.4,286046990.8,N
1510105075.2,286046988.8,Y
1510105095.0,286046993.8,P
1510105096.0,286046993.8,P
1510105115.8,286046994.6,P
1510105135.6,286046992.7,Y
1510105155.5,286046996.7,P
1510105175.3,286047002.0,N
1510105195.1,286046999.8,N
1510105215.9,286046997.1,N
1510105235.7,286047000.5,N
1510105255.5,286046999.3,N
1510105275.4,286047000.8,N
1510105295.2,286047001.2,N
1510105315.0,286046999.5,N
1510105316.0,286046999.5,N
1510105335.8,286047000.7,N
1510105355.6,286047000.8,N
1510105375.5,286047002.2,N
1510105395.3,286047007.8,Y
1510105415.1,286047014.0,P
1510105435.9,286047014.9,N
1510105455.7,286047016.9,N
1510105475.5,286047018.8,N
1510105495.4,286047017.2,N
1510105515.2,286047021.1,Y
1510105535.1,286047004.2,P
1510105536.0,286047004.2,N
1510105555.8,286046999.7,N
1510105575.6,286047002.9,N
1510105595.5,286047005.7,N
1510105615.3,286047009.7,N
1510105635.1,286047012.0,N
1510105655.9,286047014.0,Y
1510105675.7,286047002.6,P
1510105695.6,286047004.4,N
1510105715.4,286047005.7,P
1510105735.2,286047007.3,Y
1510105755.1,286047000.4,P
1510105756.0,286047000.4,N
1510105775.8,286047001.6,N
1510105795.7,286047006.4,Y
1510105815.5,286047005.5,P
1510105835.3,286047003.6,N
1510105855.2,286047002.9,N
1510105875.0,286047003.7,N
1510105875.9,286047003.7,Y
1510105895.8,286047003.6,P
1510105915.6,286047002.0,P
1510105935.4,286047000.6,N
1510105955.3,286047003.0,N
1510105975.1,286047006.1,Y
1510105995.9,286047002.9,P
1510106015.7,286047004.6,P
1510106035.5,286047001.3,N
1510106055.4,286046998.4,N
1510106075.2,286046999.0,N
1510106095.0,286046998.3,N
1510106095.9,286046998.3,N
1510106115.8,286046999.0,N
1510106135.6,286047000.0,N
1510106155.5,286047001.6,N
1510106175.3,286046999.3,N
1510106195.1,286046997.3,N
1510106215.9,286046990.5,Y
1510106235.7,286046985.8,P
1510106255.5,286046982.9,N
1510106275.4,286046983.9,N
1510106295.2,286046983.1,N
1510106315.1,286046979.6,Y
1510106316.0,286046979.6,P
1510106335.8,286046987.9,P
1510106355.6,286046983.9,P
1510106375.5,286046984.3,Y
1510106395.3,286047003.0,P
